TimePST,TemperatureF,Dew PointF,Humidity,Sea Level PressureIn,VisibilityMPH,Wind Direction,Wind SpeedMPH,Gust SpeedMPH,PrecipitationIn,Events,Conditions,WindDirDegrees,DateUTC
12:53 AM,54.0,51.1,90,29.96,6.0,WNW,4.6,-,0.01,Rain,Light Rain,300,2014-01-30 08:53:00
1:53 AM,54.0,50.0,86,29.94,8.0,Calm,Calm,-,0.02,Rain,Light Rain,0,2014-01-30 09:53:00
2:53 AM,53.1,50.0,89,29.91,10.0,Calm,Calm,-,0.01,,Partly Cloudy,0,2014-01-30 10:53:00
3:53 AM,52.0,48.9,89,29.91,6.0,Calm,Calm,-,0.02,Rain,Light Rain,0,2014-01-30 11:53:00
4:53 AM,51.1,48.9,92,29.90,10.0,WSW,4.6,-,0.01,,Overcast,240,2014-01-30 12:53:00
5:53 AM,51.1,48.9,92,29.89,10.0,Calm,Calm,-,0.01,Rain,Light Rain,0,2014-01-30 13:53:00
6:53 AM,51.1,48.9,92,29.88,10.0,SSE,4.6,-,0.01,,Overcast,160,2014-01-30 14:53:00
7:53 AM,52.0,50.0,93,29.89,10.0,West,5.8,-,N/A,,Overcast,270,2014-01-30 15:53:00
8:53 AM,52.0,48.9,89,29.91,10.0,Calm,Calm,-,N/A,,Mostly Cloudy,0,2014-01-30 16:53:00
9:53 AM,55.9,48.9,77,29.90,10.0,NNW,3.5,-,N/A,,Mostly Cloudy,330,2014-01-30 17:53:00
10:12 AM,55.9,48.9,77,29.91,10.0,NW,3.5,-,N/A,,Overcast,320,2014-01-30 18:12:00
10:53 AM,57.0,48.0,72,29.91,10.0,Variable,5.8,-,N/A,,Overcast,0,2014-01-30 18:53:00
11:16 AM,57.0,46.9,69,29.91,10.0,SSW,9.2,-,N/A,,Overcast,200,2014-01-30 19:16:00
11:53 AM,57.0,46.9,69,29.91,10.0,SW,5.8,-,N/A,,Overcast,220,2014-01-30 19:53:00
12:53 PM,60.1,45.0,57,29.88,10.0,WSW,8.1,-,N/A,,Mostly Cloudy,240,2014-01-30 20:53:00
1:53 PM,61.0,45.0,56,29.86,10.0,WSW,11.5,-,N/A,,Scattered Clouds,250,2014-01-30 21:53:00
2:53 PM,61.0,43.0,52,29.85,10.0,West,12.7,-,N/A,,Clear,270,2014-01-30 22:53:00
3:53 PM,57.0,42.1,57,29.85,10.0,West,12.7,-,N/A,,Clear,280,2014-01-30 23:53:00
4:53 PM,57.0,42.1,57,29.85,10.0,West,9.2,-,N/A,,Mostly Cloudy,270,2014-01-31 00:53:00
5:53 PM,53.1,42.1,66,29.86,10.0,SW,9.2,-,N/A,,Mostly Cloudy,230,2014-01-31 01:53:00
6:53 PM,52.0,43.0,71,29.88,10.0,West,10.4,-,N/A,,Mostly Cloudy,260,2014-01-31 02:53:00
7:53 PM,51.1,44.1,77,29.89,10.0,SW,8.1,-,N/A,,Mostly Cloudy,230,2014-01-31 03:53:00
8:53 PM,52.0,44.1,74,29.90,10.0,SW,9.2,-,N/A,,Overcast,230,2014-01-31 04:53:00
9:53 PM,52.0,44.1,74,29.91,10.0,WSW,11.5,17.3,N/A,,Overcast,250,2014-01-31 05:53:00
10:53 PM,52.0,44.1,74,29.91,10.0,WSW,11.5,-,N/A,,Overcast,240,2014-01-31 06:53:00
11:45 PM,51.1,44.1,77,29.91,10.0,SW,9.2,-,N/A,,Mostly Cloudy,220,2014-01-31 07:45:00
11:53 PM,52.0,44.1,74,29.91,10.0,SW,6.9,-,N/A,,Mostly Cloudy,230,2014-01-31 07:53:00